| time (UTC) | temp C | wind direction | speed KPH | gust KPH | rain 1hr cm | rain 24hr cm | rain mn cm | humidity % | barometer mb |
| 20260507014518 | 16 | 270 | 3.2 | 11.3 | 0.08 | 0.08 | 0.08 | 91 | 1013.1 |
| 20260507013016 | 16 | 268 | 8.0 | 12.9 | 0.08 | 0.08 | 0.08 | 91 | 1013.2 |
| 20260507011517 | 17 | 256 | 4.8 | 8.0 | 0.08 | 0.08 | 0.08 | 90 | 1013.3 |
| 20260507010018 | 17 | 316 | 1.6 | 6.4 | 0.03 | 0.03 | 0.03 | 89 | 1013.5 |
| 20260507004509 | 17 | 219 | 1.6 | 6.4 | 0.00 | 0.00 | 0.00 | 88 | 1013.5 |
| 20260507003007 | 17 | 335 | 6.4 | 16.1 | 0.00 | 0.00 | 0.00 | 87 | 1013.6 |
| 20260507001504 | 18 | 310 | 3.2 | 8.0 | 0.00 | 0.00 | 0.00 | 85 | 1013.7 |
| 20260507000004 | 18 | 297 | 1.6 | 6.4 | 0.00 | 0.00 | 0.00 | 85 | 1013.9 |
| 20260506234501 | 18 | 175 | 0.0 | 3.2 | 0.00 | 0.00 | 0.00 | 85 | 1014.1 |
| 20260506233100 | 18 | 187 | 0.0 | 0.0 | 0.00 | 0.00 | 0.00 | 85 | 1014.2 |
| 20260506231557 | 18 | 187 | 0.0 | 3.2 | 0.00 | 0.00 | 0.00 | 85 | 1014.0 |
| 20260506224555 | 18 | 195 | 0.0 | 3.2 | 0.00 | 0.00 | 0.00 | 85 | 1014.1 |
| 20260506223058 | 18 | 36 | 1.6 | 3.2 | 0.00 | 0.00 | 0.00 | 85 | 1014.0 |
| 20260506221601 | 18 | 233 | 0.0 | 3.2 | 0.00 | 0.00 | 0.00 | 85 | 1013.7 |
| 20260506220055 | 18 | 276 | 0.0 | 3.2 | 0.00 | 0.00 | 0.00 | 85 | 1013.7 |
| 20260506214558 | 18 | 344 | 1.6 | 4.8 | 0.00 | 0.00 | 0.00 | 84 | 1013.7 |
| 20260506213058 | 18 | 331 | 1.6 | 3.2 | 0.00 | 0.00 | 0.00 | 84 | 1013.5 |
| 20260506211555 | 18 | 310 | 0.0 | 3.2 | 0.00 | 0.00 | 0.00 | 83 | 1013.2 |
| 20260506210052 | 18 | 291 | 0.0 | 3.2 | 0.00 | 0.00 | 0.00 | 83 | 1013.3 |
| 20260506204551 | 18 | 312 | 1.6 | 4.8 | 0.00 | 0.00 | 0.00 | 82 | 1013.3 |
| 20260506203052 | 18 | 318 | 0.0 | 3.2 | 0.00 | 0.00 | 0.00 | 82 | 1013.0 |
| 20260506201550 | 18 | 333 | 0.0 | 3.2 | 0.00 | 0.00 | 0.00 | 82 | 1012.9 |
| 20260506200049 | 18 | 349 | 1.6 | 9.7 | 0.00 | 0.00 | 0.00 | 82 | 1012.8 |
| 20260506194549 | 18 | 329 | 3.2 | 8.0 | 0.00 | 0.00 | 0.00 | 80 | 1012.6 |
| 20260506193053 | 18 | 348 | 3.2 | 8.0 | 0.00 | 0.00 | 0.00 | 79 | 1012.7 |
| 20260506191548 | 18 | 311 | 1.6 | 4.8 | 0.00 | 0.00 | 0.00 | 78 | 1012.6 |
| 20260506190050 | 18 | 306 | 4.8 | 11.3 | 0.00 | 0.00 | 0.00 | 79 | 1012.4 |
| 20260506184546 | 18 | 312 | 3.2 | 11.3 | 0.00 | 0.00 | 0.00 | 79 | 1012.3 |
| 20260506183045 | 18 | 6 | 6.4 | 14.5 | 0.00 | 0.00 | 0.00 | 81 | 1012.2 |
| 20260506181556 | 19 | 320 | 6.4 | 16.1 | 0.00 | 0.00 | 0.00 | 81 | 1012.3 |
| 20260506180042 | 19 | 17 | 8.0 | 14.5 | 0.00 | 0.00 | 0.00 | 81 | 1012.3 |
| 20260506174539 | 19 | 21 | 3.2 | 9.7 | 0.00 | 0.00 | 0.00 | 80 | 1012.3 |
| 20260506173100 | 19 | 96 | 1.6 | 3.2 | 0.00 | 0.00 | 0.00 | 79 | 1012.4 |
| 20260506171540 | 19 | 171 | 0.0 | 3.2 | 0.00 | 0.00 | 0.00 | 79 | 1012.5 |
| 20260506170047 | 19 | 250 | 1.6 | 4.8 | 0.00 | 0.00 | 0.00 | 81 | 1012.4 |
| 20260506164529 | 18 | 355 | 3.2 | 8.0 | 0.00 | 0.00 | 0.00 | 80 | 1012.7 |
| 20260506163033 | 18 | 347 | 4.8 | 14.5 | 0.00 | 0.00 | 0.00 | 82 | 1012.7 |
| 20260506161529 | 18 | 347 | 3.2 | 11.3 | 0.00 | 0.00 | 0.00 | 83 | 1012.7 |
| 20260506160025 | 18 | 6 | 6.4 | 16.1 | 0.00 | 0.00 | 0.00 | 85 | 1013.0 |
| 20260506154525 | 18 | 335 | 9.7 | 17.7 | 0.00 | 0.00 | 0.00 | 85 | 1013.1 |
| 20260506153025 | 18 | 346 | 8.0 | 16.1 | 0.00 | 0.00 | 0.00 | 84 | 1013.2 |
| 20260506151521 | 18 | 29 | 8.0 | 17.7 | 0.00 | 0.00 | 0.00 | 85 | 1013.3 |
| 20260506150020 | 19 | 14 | 9.7 | 17.7 | 0.00 | 0.00 | 0.00 | 85 | 1013.4 |
| 20260506144519 | 19 | 324 | 9.7 | 19.3 | 0.00 | 0.00 | 0.00 | 82 | 1013.2 |
| 20260506143024 | 20 | 354 | 9.7 | 19.3 | 0.00 | 0.00 | 0.00 | 78 | 1013.1 |
| 20260506141517 | 20 | 339 | 6.4 | 12.9 | 0.00 | 0.00 | 0.00 | 77 | 1013.1 |
| 20260506140020 | 20 | 53 | 4.8 | 9.7 | 0.00 | 0.00 | 0.00 | 78 | 1013.2 |
| 20260506134516 | 19 | 280 | 4.8 | 14.5 | 0.00 | 0.00 | 0.00 | 77 | 1013.3 |
| 20260506133016 | 20 | 20 | 6.4 | 14.5 | 0.00 | 0.00 | 0.00 | 77 | 1013.7 |
| 20260506131514 | 20 | 340 | 1.6 | 9.7 | 0.00 | 0.00 | 0.00 | 76 | 1013.8 |
| 20260506130012 | 20 | 27 | 6.4 | 17.7 | 0.00 | 0.00 | 0.00 | 76 | 1013.9 |
| 20260506124512 | 21 | 5 | 1.6 | 8.0 | 0.00 | 0.00 | 0.00 | 71 | 1013.9 |
| 20260506123011 | 20 | 357 | 1.6 | 8.0 | 0.00 | 0.00 | 0.00 | 73 | 1013.8 |
| 20260506121508 | 20 | 12 | 3.2 | 12.9 | 0.00 | 0.00 | 0.00 | 74 | 1014.0 |
| 20260506120008 | 20 | 19 | 6.4 | 14.5 | 0.00 | 0.00 | 0.00 | 74 | 1014.0 |
| 20260506114508 | 20 | 291 | 6.4 | 16.1 | 0.00 | 0.00 | 0.00 | 71 | 1014.1 |
| 20260506113008 | 20 | 19 | 11.3 | 17.7 | 0.00 | 0.00 | 0.00 | 70 | 1014.1 |
| 20260506111507 | 20 | 347 | 6.4 | 14.5 | 0.00 | 0.00 | 0.00 | 72 | 1014.0 |
| 20260506110006 | 20 | 307 | 0.0 | 4.8 | 0.00 | 0.00 | 0.00 | 72 | 1013.9 |
| 20260506104515 | 20 | 15 | 3.2 | 8.0 | 0.00 | 0.00 | 0.00 | 72 | 1013.8 |
| 20260506103110 | 20 | 316 | 3.2 | 11.3 | 0.00 | 0.00 | 0.00 | 72 | 1013.9 |
| 20260506101506 | 20 | 17 | 3.2 | 9.7 | 0.00 | 0.00 | 0.00 | 70 | 1014.1 |
| 20260506100002 | 20 | 22 | 4.8 | 9.7 | 0.00 | 0.00 | 0.00 | 68 | 1013.9 |
| 20260506094601 | 20 | 26 | 3.2 | 9.7 | 0.00 | 0.00 | 0.00 | 72 | 1014.0 |
| 20260506093100 | 20 | 67 | 1.6 | 11.3 | 0.00 | 0.00 | 0.00 | 73 | 1014.0 |
| 20260506091601 | 20 | 25 | 1.6 | 4.8 | 0.00 | 0.00 | 0.00 | 73 | 1013.9 |
| 20260506090058 | 20 | 152 | 1.6 | 3.2 | 0.00 | 0.00 | 0.00 | 73 | 1013.8 |
| 20260506084557 | 20 | 14 | 3.2 | 6.4 | 0.00 | 0.00 | 0.00 | 73 | 1013.7 |
| 20260506083056 | 19 | 107 | 0.0 | 3.2 | 0.00 | 0.00 | 0.00 | 82 | 1013.7 |
| 20260506081600 | 17 | 172 | 0.0 | 6.4 | 0.00 | 0.00 | 0.00 | 84 | 1013.7 |
| 20260506073053 | 16 | 187 | 3.2 | 8.0 | 0.00 | 0.00 | 0.00 | 83 | 1013.3 |
| 20260506071606 | 16 | 184 | 4.8 | 6.4 | 0.00 | 0.00 | 0.00 | 83 | 1013.1 |
| 20260506061547 | 16 | 166 | 6.4 | 11.3 | 0.00 | 0.00 | 0.00 | 80 | 1012.8 |
| 20260506044540 | 16 | 185 | 4.8 | 6.4 | 0.00 | 0.00 | 0.00 | 82 | 1012.4 |
| 20260506043048 | 16 | 177 | 3.2 | 6.4 | 0.00 | 0.00 | 0.00 | 82 | 1012.4 |
| 20260506041541 | 16 | 184 | 1.6 | 4.8 | 0.00 | 0.00 | 0.00 | 80 | 1012.3 |
| 20260506040045 | 16 | 203 | 1.6 | 4.8 | 0.00 | 0.00 | 0.00 | 82 | 1012.3 |
| 20260506034533 | 16 | 175 | 3.2 | 6.4 | 0.00 | 0.00 | 0.00 | 82 | 1012.5 |
| 20260506033032 | 16 | 205 | 0.0 | 9.7 | 0.00 | 0.00 | 0.00 | 82 | 1012.6 |
| 20260506031530 | 16 | 168 | 4.8 | 11.3 | 0.00 | 0.00 | 0.00 | 83 | 1012.7 |
| 20260506030027 | 17 | 180 | 1.6 | 4.8 | 0.00 | 0.00 | 0.00 | 80 | 1013.0 |
| 20260506024534 | 18 | 121 | 0.0 | 0.0 | 0.00 | 0.00 | 0.00 | 80 | 1012.9 |
| 20260506023024 | 19 | 120 | 0.0 | 0.0 | 0.00 | 0.00 | 0.00 | 80 | 1013.0 |
| 20260506021539 | 19 | 120 | 0.0 | 0.0 | 0.00 | 0.00 | 0.00 | 80 | 1013.2 |
| 20260506020018 | 19 | 120 | 0.0 | 3.2 | 0.00 | 0.00 | 0.00 | 80 | 1013.4 |